EW9353 Weather Reports


time (UTC)temp
C
wind
direction
speed
KPH
gust
KPH
rain 1hr
cm
rain 24hr
cm
rain mn
cm
humidity
%
barometer
mb
20180818041521 17 54 19.3 35.4 0.00 0.00 0.00 65 1016.7
20180818040021 17 53 17.7 37.0 0.00 0.00 0.00 64 1016.6
20180818034516 17 61 16.1 30.6 0.00 0.00 0.00 64 1016.6
20180818033015 18 32 17.7 33.8 0.00 0.00 0.00 63 1016.5
20180818031514 18 56 14.5 32.2 0.00 0.00 0.00 63 1016.6
20180818030008 18 42 16.1 32.2 0.00 0.00 0.00 62 1016.7
20180818024508 18 56 19.3 35.4 0.00 0.00 0.00 61 1016.7
20180818023005 19 32 16.1 37.0 0.00 0.00 0.00 60 1016.4
20180818021602 20 18 17.7 33.8 0.00 0.00 0.00 59 1016.4
20180818020057 20 26 16.1 32.2 0.00 0.00 0.00 58 1016.3
20180818014558 20 44 17.7 32.2 0.00 0.00 0.00 58 1016.3
20180818013049 21 17 16.1 29.0 0.00 0.00 0.00 57 1016.4
20180818011621 21 35 11.3 25.7 0.00 0.00 0.00 55 1016.4
20180818010044 22 40 17.7 32.2 0.00 0.00 0.00 54 1016.4
20180818004611 22 50 14.5 25.7 0.00 0.00 0.00 53 1016.3
20180818003101 22 30 11.3 24.1 0.00 0.00 0.00 53 1016.3
20180818001535 22 80 9.7 22.5 0.00 0.00 0.00 52 1016.3
20180818000059 23 40 9.7 24.1 0.00 0.00 0.00 51 1016.4
20180817234547 24 55 8.0 12.9 0.00 0.00 0.00 49 1016.3
20180817233048 23 49 6.4 17.7 0.00 0.00 0.00 50 1016.4
20180817231531 22 39 4.8 12.9 0.00 0.00 0.00 55 1016.4
20180817230024 22 39 6.4 16.1 0.00 0.00 0.00 58 1016.4
20180817224523 22 51 4.8 12.9 0.00 0.00 0.00 62 1016.4
20180817223030 21 34 9.7 16.1 0.00 0.00 0.00 70 1016.3
20180817221547 19 30 6.4 12.9 0.00 0.00 0.00 79 1016.3
20180817220033 18 221 0.0 0.0 0.00 0.00 0.00 80 1016.4
20180817214524 18 221 0.0 1.6 0.00 0.00 0.00 79 1016.4
20180817213023 19 221 0.0 4.8 0.00 0.00 0.00 77 1016.3
20180817211539 20 221 1.6 4.8 0.00 0.00 0.00 77 1016.1
20180817210028 20 221 0.0 0.0 0.00 0.00 0.00 76 1016.1
20180817204521 20 221 1.6 4.8 0.00 0.00 0.00 72 1015.9
20180817203030 22 227 3.2 4.8 0.00 0.00 0.00 70 1015.8
20180817201523 23 227 0.0 3.2 0.00 0.00 0.00 64 1015.7
20180817200037 24 227 0.0 9.7 0.00 0.00 0.00 62 1015.5
20180817194518 25 225 6.4 14.5 0.00 0.00 0.00 60 1015.2
20180817193018 25 242 9.7 14.5 0.00 0.00 0.00 58 1015.1
20180817191516 26 229 8.0 14.5 0.00 0.00 0.00 56 1015.0
20180817190027 27 240 9.7 14.5 0.00 0.00 0.00 51 1014.8
20180817184544 29 15 3.2 6.4 0.00 0.00 0.00 38 1014.5
20180817183014 30 14 4.8 9.7 0.00 0.00 0.00 37 1014.3
20180817181521 30 26 6.4 16.1 0.00 0.00 0.00 36 1014.2
20180817180016 30 27 6.4 14.5 0.00 0.00 0.00 36 1014.0
20180817174525 30 13 4.8 14.5 0.00 0.00 0.00 36 1014.0
20180817173041 30 22 8.0 17.7 0.00 0.00 0.00 36 1014.1
20180817171516 31 5 9.7 17.7 0.00 0.00 0.00 35 1014.2
20180817170012 31 5 9.7 17.7 0.00 0.00 0.00 37 1014.2
20180817164536 30 15 14.5 22.5 0.00 0.00 0.00 35 1014.4
20180817163019 31 12 8.0 16.1 0.00 0.00 0.00 36 1014.4
20180817161508 30 53 9.7 22.5 0.00 0.00 0.00 36 1014.5
20180817160006 31 360 11.3 20.9 0.00 0.00 0.00 36 1014.5
20180817154504 30 13 9.7 20.9 0.00 0.00 0.00 35 1014.6
20180817153003 31 35 8.0 19.3 0.00 0.00 0.00 36 1014.7
20180817151501 30 15 9.7 17.7 0.00 0.00 0.00 37 1014.8
20180817150102 31 5 12.9 22.5 0.00 0.00 0.00 36 1015.0
20180817144615 30 40 6.4 16.1 0.00 0.00 0.00 39 1015.2
20180817143129 30 335 8.0 19.3 0.00 0.00 0.00 39 1015.5
20180817141557 30 28 11.3 19.3 0.00 0.00 0.00 39 1015.6
20180817140047 30 322 6.4 17.7 0.00 0.00 0.00 40 1015.8
20180817134545 30 19 11.3 24.1 0.00 0.00 0.00 41 1015.8
20180817133042 29 5 12.9 20.9 0.00 0.00 0.00 41 1016.0
20180817131611 29 38 9.7 19.3 0.00 0.00 0.00 41 1016.1
20180817130049 29 346 16.1 24.1 0.00 0.00 0.00 42 1016.2
20180817124556 29 15 11.3 19.3 0.00 0.00 0.00 43 1016.2
20180817123042 28 348 9.7 16.1 0.00 0.00 0.00 44 1016.1
20180817121533 28 355 9.7 16.1 0.00 0.00 0.00 45 1016.2
20180817120051 28 5 8.0 17.7 0.00 0.00 0.00 44 1016.3
20180817114532 27 19 16.1 29.0 0.00 0.00 0.00 46 1016.5
20180817113025 27 42 9.7 22.5 0.00 0.00 0.00 49 1016.6
20180817111524 26 67 12.9 27.4 0.00 0.00 0.00 49 1016.7
20180817110020 26 44 14.5 24.1 0.00 0.00 0.00 50 1016.8
20180817104529 25 40 12.9 24.1 0.00 0.00 0.00 53 1016.9
20180817103015 25 63 11.3 22.5 0.00 0.00 0.00 53 1017.0
20180817101511 25 18 11.3 24.1 0.00 0.00 0.00 55 1017.0
20180817100007 24 65 11.3 24.1 0.00 0.00 0.00 56 1017.0
20180817094504 23 17 11.3 24.1 0.00 0.00 0.00 57 1017.1
20180817091645 22 76 9.7 22.5 0.00 0.00 0.00 61 1016.9
20180817090100 22 61 12.9 29.0 0.00 0.00 0.00 62 1016.8
20180817084550 22 62 12.9 20.9 0.00 0.00 0.00 64 1016.8
20180817083034 21 53 11.3 20.9 0.00 0.00 0.00 64 1016.6
20180817081531 21 36 11.3 20.9 0.00 0.00 0.00 66 1016.5
20180817080048 20 42 8.0 14.5 0.00 0.00 0.00 68 1016.5
20180817074536 20 58 6.4 20.9 0.00 0.00 0.00 71 1016.5
20180817073023 19 97 8.0 19.3 0.00 0.00 0.00 73 1016.6
20180817071534 18 54 4.8 14.5 0.00 0.00 0.00 78 1016.4
20180817070031 17 67 6.4 12.9 0.00 0.00 0.00 82 1016.3
20180817064509 16 58 6.4 19.3 0.00 0.00 0.00 87 1016.3
20180817063059 15 76 4.8 14.5 0.00 0.00 0.00 95 1016.4
20180817061556 13 215 3.2 6.4 0.00 0.00 0.00 97 1016.6
20180817060204 11 232 0.0 3.2 0.00 0.00 0.00 95 1016.6
20180817054604 11 232 1.6 4.8 0.00 0.00 0.00 96 1016.6
20180817053051 11 232 0.0 1.6 0.00 0.00 0.00 94 1016.4
20180817051549 11 232 0.0 1.6 0.00 0.00 0.00 94 1016.2
20180817050103 12 232 0.0 3.2 0.00 0.00 0.00 95 1016.2
20180817044603 12 232 1.6 4.8 0.00 0.00 0.00 95 1016.1
20180817043104 12 232 0.0 4.8 0.00 0.00 0.00 95 1016.1